Regional Weather Roundup
Issued by NWS

Home | Current Version | Previous Version | Graphics & Text | Print | Product List | Glossary On
Versions: 1 2 3 4 5 6 7 8 9 10 11 12 13 14 15 16 17 18 19 20 21 22 23 24 25 26 27 28 29 30 31 32 33 34 35 36 37 38 39 40 41 42 43 44 45 46 47 48 49 50
395
ASUS43 KIND 231459
RWRIN

WEATHER ROUNDUP FOR INDIANA
NATIONAL WEATHER SERVICE INDIANAPOLIS IN
1000 AM EST MON JAN 23 2017

NOTE: "FAIR" INDICATES FEW OR NO CLOUDS BELOW 12,000 FEET WITH NO
SIGNIFICANT WEATHER AND/OR OBSTRUCTIONS TO VISIBILITY.

* - STATION DOES NOT REPORT WEATHER SUCH AS PRECIPITATION OR FOG.

+ - STATION NOT QUALITY CONTROLLED BY THE NATIONAL WEATHER SERVICE.
    USE DATA WITH CAUTION...ESPECIALLY DEWPOINT AND RELATIVE
    HUMIDITY OBSERVATIONS.

INZ001>003-010>013-019-020-231600-
NORTHWEST INDIANA

CITY           SKY/WX    TMP DP  RH WIND       PRES   REMARKS
GARY /AIRPORT/ CLOUDY    39  36  87 NW15G26   29.76R
KNOX *+        CLOUDY    37  30  75 N13       29.71R
MONTICELLO +   CLOUDY    39  38  94 N9        29.70R FOG

$$

LMZ046-743>745-231600-
SOUTHERN LAKE MICHIGAN

STATION/POSITION TIME  TEMP    WIND        PRES    WAVE
                       AIR SEA DIR/SP/G            HT
                 (UTC) (F)     (DEG/KT/KT) (MB)    (FT)
BURNS HARBOR     1440   36     340/ 12/ 15 1007.8R
MICHIGAN CITY    1430   36     350/ 16/ 18   N/A

$$

INZ004-005-014>016-021>024-231600-
NORTH CENTRAL INDIANA

CITY           SKY/WX    TMP DP  RH WIND       PRES   REMARKS
ELKHART        FOG       39  39 100 NW8       29.69  VSB 1
GOSHEN         FOG       42  39  89 N14       29.67S VSB 1
SOUTH BEND     CLOUDY    38  38 100 N12       29.71S FOG

$$

INZ006>009-017-018-025>027-231600-
NORTHEAST INDIANA

CITY           SKY/WX    TMP DP  RH WIND       PRES   REMARKS
ANGOLA *+      CLOUDY    39  28  65 N6        29.66R
FORT WAYNE     DRZL/FOG  44  42  93 N10       29.65R VSB 3/4
KENDALLVILLE + CLOUDY    42  42 100 N8        29.66R FOG

$$

INZ028-029-035-036-043>045-051>053-231600-
WEST CENTRAL INDIANA

CITY           SKY/WX    TMP DP  RH WIND       PRES   REMARKS
CRAWFORDSVL +  CLOUDY    37  37 100 NW10      29.70R FOG
LAFAYETTE      CLOUDY    39  38  96 NW14      29.71R
TERRE HAUTE    CLOUDY    42  37  82 N15       29.72R

$$

INZ030>032-037>040-046>048-054>057-064-065-231600-
CENTRAL INDIANA

CITY           SKY/WX    TMP DP  RH WIND       PRES   REMARKS
ANDERSON       FOG       45  45 100 N12       29.63R VSB 3/4
COLUMBUS       CLOUDY    45  45 100 NW17G28   29.62R FOG
INDIANAPOLIS   CLOUDY    43  41  93 N16       29.64S FOG
-EAGLE CREEK   CLOUDY    43  40  89 N12       29.64R
KOKOMO +       CLOUDY    42  42 100 N10       29.67R FOG
MT COMFORT *+  CLOUDY    43  43 100 N17G23    29.64R
SHELBYVILLE    CLOUDY    45  43  93 N18       29.61R FOG

$$

INZ033-034-041-042-049-050-058-059-231600-
EAST CENTRAL INDIANA

CITY           SKY/WX    TMP DP  RH WIND       PRES   REMARKS
MUNCIE         CLOUDY    45  44  97 N16       29.62R FOG

$$

INZ060-061-067>069-081>083-085>088-231600-
SOUTHWEST INDIANA

CITY           SKY/WX    TMP DP  RH WIND       PRES   REMARKS
EVANSVILLE     CLOUDY    43  38  82 NW14G26   29.71R
HUNTINGBURG *+ CLOUDY    45  41  87 NW16      29.66R

$$

INZ062-063-066-070>080-084-089>092-231600-
SOUTH CENTRAL AND SOUTHEAST INDIANA

CITY           SKY/WX    TMP DP  RH WIND       PRES   REMARKS
BLOOMINGTON    CLOUDY    43  41  93 N10G20    29.64R FOG
MADISON *+     CLOUDY    46  45  93 NW12G18   29.58R
SEYMOUR +      CLOUDY    48  45  87 N14       29.60R FOG

$$





USA.gov is the U.S. government's official web portal to all federal, state and local government web resources and services.